Time,TemperatureF,DewpointF,PressureIn,WindDirection,WindDirectionDegrees,WindSpeedMPH,WindSpeedGustMPH,Humidity,HourlyPrecipIn,Conditions,Clouds,dailyrainin,SoftwareType,DateUTC
2013-08-30 00:02:00,62.1,54.1,29.99,NNE,23,0.0,0.0,75,0.00,,,0.00,WUHU216HW,2013-08-30 07:02:00,
2013-08-30 00:07:00,62.1,54.1,29.99,NNE,23,0.0,0.0,75,0.00,,,0.00,WUHU216HW,2013-08-30 07:07:00,
2013-08-30 00:28:00,61.9,54.3,29.99,NNE,23,0.0,0.0,76,0.00,,,0.00,WUHU216HW,2013-08-30 07:28:00,
2013-08-30 00:33:00,61.9,54.3,29.99,NNE,23,0.0,0.0,76,0.00,,,0.00,WUHU216HW,2013-08-30 07:33:00,
2013-08-30 00:57:00,62.1,54.5,29.99,NNE,23,1.8,1.8,76,0.00,,,0.00,WUHU216HW,2013-08-30 07:57:00,
2013-08-30 01:02:00,62.1,54.5,29.99,NNE,23,1.8,1.8,76,0.00,,,0.00,WUHU216HW,2013-08-30 08:02:00,
2013-08-30 01:07:00,62.1,54.5,29.99,NNE,23,1.8,1.8,76,0.00,,,0.00,WUHU216HW,2013-08-30 08:07:00,
2013-08-30 01:28:00,61.4,54.1,29.99,North,0,0.2,0.2,77,0.00,,,0.00,WUHU216HW,2013-08-30 08:28:00,
2013-08-30 01:33:00,61.4,54.1,29.99,North,0,0.2,0.2,77,0.00,,,0.00,WUHU216HW,2013-08-30 08:33:00,
2013-08-30 01:57:00,61.4,54.5,30.00,SE,135,0.0,0.0,78,0.00,,,0.00,WUHU216HW,2013-08-30 08:57:00,
2013-08-30 02:02:00,61.4,54.5,30.00,SE,135,0.0,0.0,78,0.00,,,0.00,WUHU216HW,2013-08-30 09:02:00,
2013-08-30 02:28:00,61.6,54.3,30.01,ENE,68,0.0,0.0,77,0.00,,,0.00,WUHU216HW,2013-08-30 09:28:00,
2013-08-30 02:33:00,61.6,54.3,30.01,ENE,68,0.0,0.0,77,0.00,,,0.00,WUHU216HW,2013-08-30 09:33:00,
2013-08-30 02:57:00,60.1,55.0,30.01,SW,225,0.0,0.0,83,0.00,,,0.00,WUHU216HW,2013-08-30 09:57:00,
2013-08-30 03:02:00,60.1,55.0,30.01,SW,225,0.0,0.0,83,0.00,,,0.00,WUHU216HW,2013-08-30 10:02:00,
2013-08-30 03:28:00,59.6,55.1,30.01,NNW,338,0.0,0.0,85,0.00,,,0.00,WUHU216HW,2013-08-30 10:28:00,
2013-08-30 03:33:00,59.6,55.1,30.01,NNW,338,0.0,0.0,85,0.00,,,0.00,WUHU216HW,2013-08-30 10:33:00,
2013-08-30 03:57:00,59.6,55.5,30.01,NE,45,0.0,0.0,86,0.00,,,0.00,WUHU216HW,2013-08-30 10:57:00,
2013-08-30 04:02:00,59.6,55.5,30.01,NE,45,0.0,0.0,86,0.00,,,0.00,WUHU216HW,2013-08-30 11:02:00,
2013-08-30 04:28:00,59.2,55.4,30.02,NE,45,0.0,0.0,87,0.00,,,0.00,WUHU216HW,2013-08-30 11:28:00,
2013-08-30 04:33:00,59.2,55.4,30.02,NE,45,0.0,0.0,87,0.00,,,0.00,WUHU216HW,2013-08-30 11:33:00,
2013-08-30 04:58:00,58.7,54.8,30.04,NW,315,0.0,0.0,87,0.00,,,0.00,WUHU216HW,2013-08-30 11:58:00,
2013-08-30 05:03:00,58.7,54.8,30.04,NW,315,0.0,0.0,87,0.00,,,0.00,WUHU216HW,2013-08-30 12:03:00,
2013-08-30 05:28:00,58.3,54.5,30.04,NNW,338,0.7,0.7,87,0.00,,,0.00,WUHU216HW,2013-08-30 12:28:00,
2013-08-30 05:33:00,58.3,54.5,30.04,NNW,338,0.7,0.7,87,0.00,,,0.00,WUHU216HW,2013-08-30 12:33:00,
2013-08-30 05:58:00,57.6,53.7,30.05,NNE,23,0.0,0.0,87,0.00,,,0.00,WUHU216HW,2013-08-30 12:58:00,
2013-08-30 06:03:00,57.6,53.7,30.05,NNE,23,0.0,0.0,87,0.00,,,0.00,WUHU216HW,2013-08-30 13:03:00,
2013-08-30 06:28:00,57.2,53.4,30.06,NE,45,0.2,0.2,87,0.00,,,0.00,WUHU216HW,2013-08-30 13:28:00,
2013-08-30 06:33:00,57.2,53.4,30.06,NE,45,0.2,0.2,87,0.00,,,0.00,WUHU216HW,2013-08-30 13:33:00,
2013-08-30 06:57:00,57.2,53.7,30.07,NNE,23,0.7,0.7,88,0.00,,,0.00,WUHU216HW,2013-08-30 13:57:00,
2013-08-30 07:02:00,57.2,53.7,30.07,NNE,23,0.4,0.7,88,0.00,,,0.00,WUHU216HW,2013-08-30 14:02:00,
2013-08-30 07:07:00,57.2,53.7,30.07,NNE,23,0.4,0.4,88,0.00,,,0.00,WUHU216HW,2013-08-30 14:07:00,
2013-08-30 07:28:00,60.5,57.0,30.08,ENE,68,0.0,0.0,88,0.00,,,0.00,WUHU216HW,2013-08-30 14:28:00,
2013-08-30 07:33:00,60.5,57.0,30.08,ENE,68,0.0,0.0,88,0.00,,,0.00,WUHU216HW,2013-08-30 14:33:00,
2013-08-30 07:57:00,61.4,57.5,30.09,NE,45,0.0,0.0,87,0.00,,,0.00,WUHU216HW,2013-08-30 14:57:00,
2013-08-30 08:02:00,61.6,57.7,30.09,NE,45,0.0,0.0,87,0.00,,,0.00,WUHU216HW,2013-08-30 15:02:00,
2013-08-30 08:07:00,61.6,57.7,30.09,NE,45,0.0,0.0,87,0.00,,,0.00,WUHU216HW,2013-08-30 15:07:00,
2013-08-30 08:28:00,63.9,57.6,30.09,SW,225,0.7,0.7,80,0.00,,,0.00,WUHU216HW,2013-08-30 15:28:00,
2013-08-30 08:33:00,63.9,57.6,30.09,SW,225,0.7,0.7,80,0.00,,,0.00,WUHU216HW,2013-08-30 15:33:00,
2013-08-30 08:57:00,65.5,57.8,30.09,SSW,203,3.6,3.6,76,0.00,,,0.00,WUHU216HW,2013-08-30 15:57:00,
2013-08-30 09:02:00,65.5,57.3,30.09,SSW,203,3.6,3.6,75,0.00,,,0.00,WUHU216HW,2013-08-30 16:02:00,
2013-08-30 09:07:00,65.5,57.3,30.09,SSW,203,3.6,3.6,75,0.00,,,0.00,WUHU216HW,2013-08-30 16:07:00,
2013-08-30 09:28:00,67.7,57.6,30.09,South,180,1.3,1.3,70,0.00,,,0.00,WUHU216HW,2013-08-30 16:28:00,
2013-08-30 09:33:00,67.7,57.6,30.09,South,180,1.3,1.3,70,0.00,,,0.00,WUHU216HW,2013-08-30 16:33:00,
2013-08-30 09:57:00,69.7,56.9,30.09,SSW,203,5.1,5.1,64,0.00,,,0.00,WUHU216HW,2013-08-30 16:57:00,
2013-08-30 10:02:00,69.7,57.3,30.09,SSW,203,4.7,5.1,65,0.00,,,0.00,WUHU216HW,2013-08-30 17:02:00,
2013-08-30 10:07:00,69.7,57.3,30.09,SSW,203,4.7,4.7,65,0.00,,,0.00,WUHU216HW,2013-08-30 17:07:00,
2013-08-30 10:28:00,72.0,56.9,30.09,SW,225,1.8,1.8,59,0.00,,,0.00,WUHU216HW,2013-08-30 17:28:00,
2013-08-30 10:33:00,72.0,56.9,30.09,SW,225,1.8,1.8,59,0.00,,,0.00,WUHU216HW,2013-08-30 17:33:00,
2013-08-30 10:57:00,75.8,57.0,30.09,SSW,203,5.4,5.4,52,0.00,,,0.00,WUHU216HW,2013-08-30 17:57:00,
2013-08-30 11:03:00,75.8,57.0,30.09,SW,225,5.4,5.4,52,0.00,,,0.00,WUHU216HW,2013-08-30 18:03:00,
2013-08-30 11:28:00,77.9,56.1,30.09,South,180,4.7,4.7,47,0.00,,,0.00,WUHU216HW,2013-08-30 18:28:00,
2013-08-30 11:33:00,77.9,56.1,30.09,South,180,4.7,4.7,47,0.00,,,0.00,WUHU216HW,2013-08-30 18:33:00,
2013-08-30 11:57:00,77.8,54.6,30.08,SW,225,5.4,5.4,45,0.00,,,0.00,WUHU216HW,2013-08-30 18:57:00,
2013-08-30 12:02:00,77.8,55.3,30.08,SSW,203,4.5,5.4,46,0.00,,,0.00,WUHU216HW,2013-08-30 19:02:00,
2013-08-30 12:07:00,77.8,55.3,30.08,SSW,203,4.5,4.5,46,0.00,,,0.00,WUHU216HW,2013-08-30 19:07:00,
2013-08-30 12:28:00,79.2,56.0,30.07,SW,225,4.7,4.7,45,0.00,,,0.00,WUHU216HW,2013-08-30 19:28:00,
2013-08-30 12:33:00,79.2,56.0,30.07,SW,225,4.7,4.7,45,0.00,,,0.00,WUHU216HW,2013-08-30 19:33:00,
2013-08-30 12:57:00,80.3,53.1,30.06,SSE,158,7.4,7.4,39,0.00,,,0.00,WUHU216HW,2013-08-30 19:57:00,
2013-08-30 13:02:00,80.3,53.1,30.06,SSE,158,7.4,7.4,39,0.00,,,0.00,WUHU216HW,2013-08-30 20:02:00,
2013-08-30 13:28:00,80.6,52.7,30.05,South,180,9.4,9.4,38,0.00,,,0.00,WUHU216HW,2013-08-30 20:28:00,
2013-08-30 13:33:00,80.6,52.7,30.05,South,180,9.4,9.4,38,0.00,,,0.00,WUHU216HW,2013-08-30 20:33:00,
2013-08-30 13:57:00,80.3,52.3,30.04,SSW,203,8.1,8.1,38,0.00,,,0.00,WUHU216HW,2013-08-30 20:57:00,
2013-08-30 14:02:00,80.3,52.3,30.04,SSW,203,8.1,8.1,38,0.00,,,0.00,WUHU216HW,2013-08-30 21:02:00,
2013-08-30 14:28:00,81.7,52.8,30.04,SSW,203,2.7,2.7,37,0.00,,,0.00,WUHU216HW,2013-08-30 21:28:00,
2013-08-30 14:33:00,81.7,52.8,30.04,SSW,203,2.7,2.7,37,0.00,,,0.00,WUHU216HW,2013-08-30 21:33:00,
2013-08-30 14:57:00,81.9,49.8,30.03,SW,225,11.0,11.0,33,0.00,,,0.00,WUHU216HW,2013-08-30 21:57:00,
2013-08-30 15:02:00,81.9,49.8,30.03,SW,225,11.0,11.0,33,0.00,,,0.00,WUHU216HW,2013-08-30 22:02:00,
2013-08-30 15:28:00,81.0,49.9,30.02,SSW,203,4.9,4.9,34,0.00,,,0.00,WUHU216HW,2013-08-30 22:28:00,
2013-08-30 15:33:00,81.0,49.9,30.02,SSW,203,4.9,4.9,34,0.00,,,0.00,WUHU216HW,2013-08-30 22:33:00,
2013-08-30 15:58:00,80.8,48.2,30.02,SSW,203,5.1,5.1,32,0.00,,,0.00,WUHU216HW,2013-08-30 22:58:00,
2013-08-30 16:02:00,80.8,48.2,30.02,SSW,203,5.1,5.1,32,0.00,,,0.00,WUHU216HW,2013-08-30 23:02:00,
2013-08-30 16:28:00,80.3,48.4,30.01,SSW,203,5.4,5.4,33,0.00,,,0.00,WUHU216HW,2013-08-30 23:28:00,
2013-08-30 16:33:00,80.3,48.4,30.01,SSW,203,5.4,5.4,33,0.00,,,0.00,WUHU216HW,2013-08-30 23:33:00,
2013-08-30 16:57:00,80.5,48.6,30.01,SSW,203,6.9,6.9,33,0.00,,,0.00,WUHU216HW,2013-08-30 23:57:00,
2013-08-30 17:02:00,80.5,48.6,30.01,SSW,203,6.9,6.9,33,0.00,,,0.00,WUHU216HW,2013-08-31 00:02:00,
2013-08-30 17:28:00,80.3,47.7,30.01,SSE,158,3.6,3.6,32,0.00,,,0.00,WUHU216HW,2013-08-31 00:28:00,
2013-08-30 17:33:00,80.3,47.7,30.01,SSE,158,3.6,3.6,32,0.00,,,0.00,WUHU216HW,2013-08-31 00:33:00,
2013-08-30 17:57:00,79.7,47.2,30.00,SW,225,2.5,2.5,32,0.00,,,0.00,WUHU216HW,2013-08-31 00:57:00,
2013-08-30 18:02:00,79.7,47.2,30.00,SW,225,4.0,4.0,32,0.00,,,0.00,WUHU216HW,2013-08-31 01:02:00,
2013-08-30 18:07:00,79.7,47.2,30.00,SW,225,4.0,4.0,32,0.00,,,0.00,WUHU216HW,2013-08-31 01:07:00,
2013-08-30 18:28:00,79.0,47.4,30.00,SSW,203,2.2,2.2,33,0.00,,,0.00,WUHU216HW,2013-08-31 01:28:00,
2013-08-30 18:33:00,79.0,47.4,30.00,SSW,203,2.2,2.2,33,0.00,,,0.00,WUHU216HW,2013-08-31 01:33:00,
2013-08-30 18:57:00,77.6,46.9,30.01,WSW,248,1.1,1.1,34,0.00,,,0.00,WUHU216HW,2013-08-31 01:57:00,
2013-08-30 19:02:00,77.6,46.9,30.01,WSW,248,1.1,1.1,34,0.00,,,0.00,WUHU216HW,2013-08-31 02:02:00,
2013-08-30 19:07:00,77.6,46.9,30.01,WSW,248,1.1,1.1,34,0.00,,,0.00,WUHU216HW,2013-08-31 02:07:00,
2013-08-30 19:28:00,76.0,46.2,30.01,SSW,203,1.1,1.1,35,0.00,,,0.00,WUHU216HW,2013-08-31 02:28:00,
2013-08-30 19:33:00,76.0,46.2,30.01,SSW,203,1.1,1.1,35,0.00,,,0.00,WUHU216HW,2013-08-31 02:33:00,
2013-08-30 19:57:00,72.4,47.9,30.01,NNE,23,0.0,0.0,42,0.00,,,0.00,WUHU216HW,2013-08-31 02:57:00,
2013-08-30 20:02:00,72.4,47.9,30.01,NNE,23,0.0,0.0,42,0.00,,,0.00,WUHU216HW,2013-08-31 03:02:00,
2013-08-30 20:07:00,72.4,47.9,30.01,NNE,23,0.0,0.0,42,0.00,,,0.00,WUHU216HW,2013-08-31 03:07:00,
2013-08-30 20:28:00,68.4,47.4,30.01,NNE,23,0.9,0.9,47,0.00,,,0.00,WUHU216HW,2013-08-31 03:28:00,
2013-08-30 20:33:00,68.4,47.4,30.01,NNE,23,0.9,0.9,47,0.00,,,0.00,WUHU216HW,2013-08-31 03:33:00,
2013-08-30 20:57:00,66.1,48.0,30.01,NNE,23,0.0,0.0,52,0.00,,,0.00,WUHU216HW,2013-08-31 03:57:00,
2013-08-30 21:01:00,66.1,48.0,30.01,NNE,23,0.0,0.0,52,0.00,,,0.00,WUHU216HW,2013-08-31 04:01:00,
2013-08-30 21:03:00,66.1,48.0,30.01,NNE,23,0.0,0.0,52,0.00,,,0.00,WUHU216HW,2013-08-31 04:03:00,
2013-08-30 21:28:00,63.7,47.6,30.01,NNE,23,0.0,0.0,56,0.00,,,0.00,WUHU216HW,2013-08-31 04:28:00,
2013-08-30 21:33:00,63.7,47.6,30.01,NNE,23,0.0,0.0,56,0.00,,,0.00,WUHU216HW,2013-08-31 04:33:00,
2013-08-30 21:57:00,61.6,48.1,30.01,NNE,23,0.7,0.7,61,0.00,,,0.00,WUHU216HW,2013-08-31 04:57:00,
2013-08-30 22:02:00,61.6,48.1,30.01,NNE,23,0.7,0.7,61,0.00,,,0.00,WUHU216HW,2013-08-31 05:02:00,
2013-08-30 22:07:00,61.6,48.1,30.01,NNE,23,0.7,0.7,61,0.00,,,0.00,WUHU216HW,2013-08-31 05:07:00,
2013-08-30 22:28:00,60.1,48.3,30.02,NNE,23,0.2,0.2,65,0.00,,,0.00,WUHU216HW,2013-08-31 05:28:00,
2013-08-30 22:33:00,60.1,48.3,30.02,NNE,23,0.2,0.2,65,0.00,,,0.00,WUHU216HW,2013-08-31 05:33:00,
2013-08-30 22:57:00,58.5,48.0,30.03,NNE,23,0.0,0.0,68,0.00,,,0.00,WUHU216HW,2013-08-31 05:57:00,
2013-08-30 23:02:00,58.5,48.0,30.03,NNE,23,0.0,0.0,68,0.00,,,0.00,WUHU216HW,2013-08-31 06:02:00,
2013-08-30 23:28:00,57.2,47.2,30.04,NNE,23,0.0,0.0,69,0.00,,,0.00,WUHU216HW,2013-08-31 06:28:00,
2013-08-30 23:33:00,57.2,47.2,30.04,NNE,23,0.0,0.0,69,0.00,,,0.00,WUHU216HW,2013-08-31 06:33:00,
2013-08-30 23:57:00,56.2,47.3,30.04,NNE,23,0.0,0.0,72,0.00,,,0.00,WUHU216HW,2013-08-31 06:57:00,